GW1009 Weather Reports


time (UTC)temp
F
wind
direction
speed
knots
gust
knots
rain 1hr
in
rain 24hr
in
rain mn
in
humidity
%
barometer
mb
20260904195509 72 283 7.8 13.0 0.00 0.00 0.00 56 1010.9
20260904195008 72 325 7.0 13.9 0.00 0.00 0.00 54 1010.9
20260904194508 72 288 6.1 14.8 0.00 0.00 0.00 54 1010.9
20260904194008 72 274 7.8 13.0 0.00 0.00 0.00 57 1010.9
20260904193508 72 255 6.1 12.2 0.00 0.00 0.00 55 1011.0
20260904193008 71 295 5.2 14.8 0.00 0.00 0.00 57 1010.9
20260904192508 72 316 7.8 14.8 0.00 0.00 0.00 56 1010.9
20260904192007 72 305 7.8 13.9 0.00 0.00 0.00 57 1011.0
20260904191510 72 326 5.2 13.0 0.00 0.00 0.00 55 1011.0
20260904191007 72 292 5.2 13.9 0.00 0.00 0.00 56 1010.9
20260904190507 73 286 7.8 13.9 0.00 0.00 0.00 55 1010.9
20260904190007 72 318 6.1 17.4 0.00 0.00 0.00 58 1010.9
20260904185506 72 305 8.7 17.4 0.00 0.00 0.00 54 1010.9
20260904185006 73 290 7.0 13.9 0.00 0.00 0.00 54 1011.0
20260904184506 73 284 8.7 18.2 0.00 0.00 0.00 53 1011.0
20260904184006 73 282 6.1 18.2 0.00 0.00 0.00 56 1011.1
20260904183506 73 292 6.1 15.6 0.00 0.00 0.00 56 1011.2
20260904183005 73 294 7.8 15.6 0.00 0.00 0.00 56 1011.1
20260904182505 73 278 8.7 14.8 0.00 0.00 0.00 55 1011.0
20260904182004 73 321 7.0 12.2 0.00 0.00 0.00 56 1011.0
20260904181504 73 276 6.1 16.5 0.00 0.00 0.00 56 1011.2
20260904181006 73 296 9.6 16.5 0.00 0.00 0.00 55 1011.1
20260904180506 73 277 7.0 14.8 0.00 0.00 0.00 57 1011.2
20260904180003 73 289 7.0 14.8 0.00 0.00 0.00 59 1011.3
20260904175503 73 279 7.0 15.6 0.00 0.00 0.00 59 1011.3
20260904175005 73 319 7.0 17.4 0.00 0.00 0.00 57 1011.1
20260904174502 72 313 10.4 17.4 0.00 0.00 0.00 61 1011.3
20260904174000 72 305 6.1 11.3 0.00 0.00 0.00 62 1011.2
20260904173501 72 281 6.1 11.3 0.00 0.00 0.00 61 1011.3
20260904173127 72 211 6.1 13.9 0.00 0.00 0.00 63 1011.4
20260904172600 72 289 7.8 13.9 0.00 0.00 0.00 63 1011.3
20260904172100 72 289 6.1 13.0 0.00 0.00 0.00 62 1011.4
20260904171609 71 338 7.8 13.0 0.00 0.00 0.00 63 1011.5
20260904171101 71 295 6.1 11.3 0.00 0.00 0.00 63 1011.5
20260904170600 71 300 7.0 12.2 0.00 0.00 0.00 62 1011.5
20260904170059 71 327 6.1 13.9 0.00 0.00 0.00 64 1011.6
20260904165558 71 302 9.6 13.9 0.00 0.00 0.00 62 1011.6
20260904165058 70 308 7.8 13.0 0.00 0.00 0.00 63 1011.7
20260904164559 71 302 8.7 13.0 0.00 0.00 0.00 62 1011.5
20260904164057 71 311 3.5 12.2 0.00 0.00 0.00 61 1011.4
20260904163556 71 317 6.1 14.8 0.00 0.00 0.00 64 1011.4
20260904163056 70 313 7.8 14.8 0.00 0.00 0.00 62 1011.5
20260904162556 70 302 7.0 13.9 0.00 0.00 0.00 62 1011.6
20260904162058 70 311 5.2 12.2 0.00 0.00 0.00 63 1011.5
20260904161556 70 309 6.1 13.0 0.00 0.00 0.00 63 1011.5
20260904161055 71 338 9.6 13.0 0.00 0.00 0.00 59 1011.5
20260904160554 72 315 5.2 12.2 0.00 0.00 0.00 63 1011.5
20260904160054 72 306 7.8 12.2 0.00 0.00 0.00 63 1011.4
20260904155553 71 328 4.3 13.0 0.00 0.00 0.00 65 1011.6
20260904155052 71 300 7.8 13.0 0.00 0.00 0.00 64 1011.6
20260904154552 71 315 8.7 13.0 0.00 0.00 0.00 63 1011.8
20260904154055 70 257 5.2 12.2 0.00 0.00 0.00 62 1011.7
20260904153551 70 290 7.0 12.2 0.00 0.00 0.00 65 1011.9
20260904153050 70 275 4.3 12.2 0.00 0.00 0.00 66 1011.8
20260904152552 70 301 6.1 12.2 0.00 0.00 0.00 65 1011.9
20260904152050 70 320 4.3 11.3 0.00 0.00 0.00 67 1011.9
20260904151549 70 294 7.0 12.2 0.00 0.00 0.00 67 1011.9
20260904151049 70 323 6.1 13.0 0.00 0.00 0.00 68 1011.9
20260904150547 70 327 7.8 13.0 0.00 0.00 0.00 69 1011.9
20260904150104 69 310 6.1 10.4 0.00 0.00 0.00 70 1011.8
20260904145547 69 313 5.2 10.4 0.00 0.00 0.00 71 1011.8
20260904145046 69 319 7.0 10.4 0.00 0.00 0.00 71 1011.9
20260904144545 69 300 5.2 10.4 0.00 0.00 0.00 71 1011.9
20260904144045 68 264 2.6 10.4 0.00 0.00 0.00 75 1012.1
20260904143544 68 311 5.2 10.4 0.00 0.00 0.00 71 1012.1
20260904143044 69 306 4.3 10.4 0.00 0.00 0.00 75 1012.0
20260904142543 68 283 3.5 10.4 0.00 0.00 0.00 77 1012.1
20260904142042 68 331 3.5 8.7 0.00 0.00 0.00 76 1012.0
20260904141545 67 324 3.5 9.6 0.00 0.00 0.00 77 1012.2
20260904141040 67 302 4.3 7.8 0.00 0.00 0.00 77 1012.2
20260904140541 67 292 4.3 10.4 0.00 0.00 0.00 78 1012.2
20260904140041 67 280 5.2 10.4 0.00 0.00 0.00 77 1012.1
20260904135539 68 284 4.3 11.3 0.00 0.00 0.00 76 1012.1
20260904135037 67 296 6.1 11.3 0.00 0.00 0.00 77 1011.9
20260904134546 67 304 1.7 7.8 0.00 0.00 0.00 81 1011.9
20260904134034 66 321 4.3 7.8 0.00 0.00 0.00 83 1011.7
20260904133533 66 284 3.5 8.7 0.00 0.00 0.00 83 1011.9
20260904133033 66 292 3.5 8.7 0.00 0.00 0.00 85 1011.7
20260904132535 66 263 1.7 6.1 0.00 0.00 0.00 86 1011.7
20260904132032 66 306 1.7 4.3 0.00 0.00 0.00 87 1011.6
20260904131529 65 294 2.6 6.1 0.00 0.00 0.00 87 1011.8
20260904131029 65 286 2.6 7.8 0.00 0.00 0.00 87 1011.8
20260904130533 65 305 4.3 8.7 0.00 0.00 0.00 86 1011.9
20260904130034 65 282 4.3 8.7 0.00 0.00 0.00 87 1011.7
20260904125527 65 311 4.3 8.7 0.00 0.00 0.00 89 1011.8
20260904125026 65 317 1.7 7.0 0.00 0.00 0.00 90 1011.7
20260904124525 65 292 2.6 7.0 0.00 0.00 0.00 91 1011.8
20260904124029 65 312 3.5 0.0 0.00 0.00 0.00 92 1011.9
20260904123522 64 294 1.7 7.0 0.00 0.00 0.00 91 1011.8
20260904123022 64 305 1.7 7.0 0.00 0.00 0.00 92 1011.8
20260904122525 64 299 2.6 6.1 0.00 0.00 0.00 93 1011.8
20260904122020 64 300 1.7 5.2 0.00 0.00 0.00 93 1011.7
20260904121519 63 311 2.6 5.2 0.00 0.00 0.00 93 1011.7
20260904121017 63 311 1.7 5.2 0.00 0.00 0.00 93 1011.7
20260904120518 63 279 2.6 5.2 0.00 0.00 0.00 93 1011.6
20260904120019 63 360 1.7 7.0 0.00 0.00 0.00 94 1011.6
20260904115520 63 282 1.7 7.0 0.00 0.00 0.00 94 1011.7
20260904115016 63 360 1.7 7.0 0.00 0.00 0.00 94 1011.6
20260904114529 63 360 0.9 4.3 0.00 0.00 0.00 94 1011.5
20260904114017 63 360 0.9 4.3 0.00 0.00 0.00 94 1011.5
20260904113516 63 360 1.7 4.3 0.00 0.00 0.00 94 1011.4
20260904113015 63 280 0.9 3.5 0.00 0.00 0.00 94 1011.5
20260904112514 62 301 0.9 4.3 0.00 0.00 0.00 94 1011.3
20260904112013 62 248 1.7 4.3 0.00 0.00 0.00 94 1011.2
20260904111523 62 288 1.7 6.1 0.00 0.00 0.00 94 1011.2
20260904111013 62 271 2.6 6.1 0.00 0.00 0.00 94 1011.2
20260904110512 62 304 1.7 6.1 0.00 0.00 0.00 94 1011.2
20260904110012 62 295 1.7 5.2 0.00 0.00 0.00 94 1011.1
20260904105513 62 305 1.7 4.3 0.00 0.00 0.00 94 1011.0
20260904105011 62 276 0.0 5.2 0.00 0.00 0.00 94 1010.9
20260904104510 62 360 0.9 5.2 0.00 0.00 0.00 94 1010.9
20260904104011 62 264 0.0 3.5 0.00 0.00 0.00 94 1010.8
20260904103510 62 360 0.0 3.5 0.00 0.00 0.00 94 1010.8
20260904103011 62 360 0.0 0.0 0.00 0.00 0.00 94 1010.8
20260904102513 62 360 0.0 0.0 0.00 0.00 0.00 94 1010.7
20260904102010 62 223 0.0 0.0 0.00 0.00 0.00 94 1010.6
20260904101510 62 222 0.0 0.0 0.00 0.00 0.00 94 1010.6
20260904101009 62 223 0.0 0.9 0.00 0.00 0.00 94 1010.6
20260904100509 62 360 0.0 0.9 0.00 0.00 0.00 94 1010.6
20260904100010 62 360 0.0 1.7 0.00 0.00 0.00 94 1010.6
20260904095513 62 360 0.9 1.7 0.00 0.00 0.00 94 1010.6
20260904095008 62 360 0.0 1.7 0.00 0.00 0.00 94 1010.5
20260904094518 62 360 0.0 2.6 0.00 0.00 0.00 94 1010.5
20260904094008 62 360 0.0 2.6 0.00 0.00 0.00 94 1010.5
20260904093508 62 317 0.0 1.7 0.00 0.00 0.00 94 1010.4
20260904093008 61 259 0.0 0.0 0.00 0.00 0.00 94 1010.4
20260904092511 60 260 0.0 0.0 0.00 0.00 0.00 94 1010.3
20260904092009 60 259 0.0 0.0 0.00 0.00 0.00 94 1010.3
20260904091507 60 260 0.0 0.0 0.00 0.00 0.00 94 1010.2
20260904091008 60 260 0.0 0.0 0.00 0.00 0.00 94 1010.3
20260904090508 60 260 0.0 0.0 0.00 0.00 0.00 94 1010.2
20260904090007 60 260 0.0 0.0 0.00 0.00 0.00 94 1010.3
20260904085507 60 260 0.0 0.0 0.00 0.00 0.00 94 1010.2
20260904085007 60 260 0.0 0.0 0.00 0.00 0.00 93 1010.2
20260904084511 61 360 0.0 0.0 0.00 0.00 0.00 94 1010.2
20260904084006 61 260 0.0 0.0 0.00 0.00 0.00 94 1010.2
20260904083508 61 260 0.0 0.9 0.00 0.00 0.00 94 1010.2
20260904083010 61 260 0.0 0.9 0.00 0.00 0.00 94 1010.2
20260904082507 61 309 0.0 0.0 0.00 0.00 0.00 94 1010.2
20260904082009 62 309 0.0 3.5 0.00 0.00 0.00 94 1010.2
20260904081507 61 308 0.0 3.5 0.00 0.00 0.00 94 1010.2
20260904081003 61 297 0.0 0.0 0.00 0.00 0.00 94 1010.1
20260904080503 61 296 0.0 0.0 0.00 0.00 0.00 94 1010.0
20260904080006 61 297 0.0 0.0 0.00 0.00 0.00 93 1010.1
20260904075503 61 297 0.0 0.0 0.00 0.00 0.00 93 1010.1
20260904075002 61 297 0.0 0.0 0.00 0.00 0.00 93 1010.0
20260904074501 61 298 0.0 0.0 0.00 0.00 0.00 93 1010.0
20260904074002 61 298 0.0 0.0 0.00 0.00 0.00 93 1010.0
20260904073502 61 298 0.0 0.0 0.00 0.00 0.00 93 1010.1
20260904073001 61 298 0.0 0.0 0.00 0.00 0.00 93 1010.0
20260904072601 60 297 0.0 0.0 0.00 0.00 0.00 93 1010.0
20260904072100 60 360 0.0 0.0 0.00 0.00 0.00 93 1009.9
20260904071559 60 360 0.0 0.0 0.00 0.00 0.00 93 1010.0
20260904071059 60 298 0.0 0.0 0.00 0.00 0.00 93 1010.0
20260904070558 60 298 0.0 0.0 0.00 0.00 0.00 93 1010.0
20260904070100 60 298 0.0 0.0 0.00 0.00 0.00 93 1009.9
20260904065556 61 298 0.0 0.0 0.00 0.00 0.00 92 1010.0
20260904065055 61 298 0.0 0.0 0.00 0.00 0.00 92 1010.0
20260904064554 61 298 0.0 0.0 0.00 0.00 0.00 92 1010.1
20260904064053 62 298 0.0 0.0 0.00 0.00 0.00 92 1010.1
20260904063555 62 298 0.0 0.0 0.00 0.00 0.00 92 1010.1
20260904063058 62 298 0.0 0.0 0.00 0.00 0.00 92 1010.2
20260904062554 62 298 0.0 0.0 0.00 0.00 0.00 92 1010.1
20260904062051 62 298 0.0 0.0 0.00 0.00 0.00 92 1010.3
20260904061550 62 298 0.0 0.0 0.00 0.00 0.00 92 1010.3
20260904061054 62 298 0.0 0.0 0.00 0.00 0.00 92 1010.3
20260904060549 62 298 0.0 0.0 0.00 0.00 0.00 92 1010.4
20260904060050 62 298 0.0 0.0 0.00 0.00 0.00 92 1010.5
20260904055547 62 298 0.0 0.0 0.00 0.00 0.00 92 1010.6
20260904055047 62 298 0.0 0.0 0.00 0.00 0.00 92 1010.7
20260904054549 62 298 0.0 0.0 0.00 0.00 0.00 92 1010.6
20260904054046 62 298 0.0 0.0 0.00 0.00 0.00 92 1010.7
20260904053545 62 298 0.0 0.0 0.00 0.00 0.00 92 1010.8
20260904053046 62 298 0.0 0.0 0.00 0.00 0.00 92 1010.8
20260904052547 63 298 0.0 0.0 0.00 0.00 0.00 92 1010.8
20260904052045 63 298 0.0 0.0 0.00 0.00 0.00 92 1010.8
20260904051546 63 298 0.0 0.0 0.00 0.00 0.00 92 1010.8
20260904051043 63 298 0.0 0.0 0.00 0.00 0.00 92 1010.9
20260904050543 63 298 0.0 0.0 0.00 0.00 0.00 92 1010.9
20260904050043 63 298 0.0 0.0 0.00 0.00 0.00 92 1011.0
20260904045543 63 298 0.0 0.0 0.00 0.00 0.00 92 1011.0
20260904045043 63 298 0.0 0.0 0.00 0.00 0.00 92 1010.9
20260904044543 63 298 0.0 0.0 0.00 0.00 0.00 91 1011.0
20260904044042 63 298 0.0 0.0 0.00 0.00 0.00 91 1010.9
20260904043542 63 298 0.0 0.0 0.00 0.00 0.00 91 1011.0
20260904043047 63 298 0.0 0.0 0.00 0.00 0.00 91 1010.9
20260904042542 63 298 0.0 0.0 0.00 0.00 0.00 91 1010.9
20260904042042 63 298 0.0 0.0 0.00 0.00 0.00 91 1010.7
20260904041540 63 298 0.0 0.0 0.00 0.00 0.00 91 1010.7
20260904041040 63 298 0.0 0.0 0.00 0.00 0.00 91 1010.8
20260904040542 63 298 0.0 0.0 0.00 0.00 0.00 91 1010.9
20260904040039 63 299 0.0 0.0 0.00 0.00 0.00 91 1010.9
20260904035540 63 299 0.0 0.0 0.00 0.04 0.00 91 1010.9
20260904035039 63 299 0.0 0.0 0.00 0.04 0.00 91 1011.0
20260904034544 63 299 0.0 0.0 0.00 0.04 0.00 91 1011.0
20260904034038 63 299 0.0 0.0 0.00 0.04 0.00 91 1011.0
20260904033538 63 299 0.0 0.0 0.00 0.04 0.00 91 1011.0
20260904033039 63 299 0.0 0.0 0.00 0.04 0.00 91 1010.9
20260904032537 63 298 0.0 0.0 0.00 0.04 0.00 91 1011.0
20260904032037 63 298 0.0 0.0 0.00 0.04 0.00 90 1011.1
20260904031536 63 298 0.0 0.0 0.00 0.04 0.00 90 1011.2
20260904031035 64 298 0.0 0.0 0.00 0.04 0.00 91 1011.1
20260904030535 64 298 0.0 0.0 0.00 0.04 0.00 91 1011.1
20260904030035 64 298 0.0 0.0 0.00 0.04 0.00 90 1011.2
20260904025535 64 298 0.0 0.0 0.00 0.12 0.00 90 1011.2
20260904025035 64 298 0.0 0.0 0.00 0.12 0.00 90 1011.1
20260904024545 64 298 0.0 0.0 0.00 0.12 0.00 90 1011.2
20260904024035 64 298 0.0 0.0 0.00 0.12 0.00 89 1011.3
20260904023534 64 298 0.0 0.0 0.00 0.12 0.00 89 1011.2
20260904023035 64 298 0.0 0.0 0.00 0.12 0.00 89 1011.2
20260904022535 64 298 0.0 0.0 0.00 0.12 0.00 89 1011.3
20260904022034 64 298 0.0 0.0 0.00 0.12 0.00 88 1011.3
20260904021535 64 298 0.0 0.0 0.00 0.12 0.00 88 1011.4
20260904021036 64 298 0.0 0.0 0.00 0.12 0.00 87 1011.7
20260904020533 64 298 0.0 0.0 0.00 0.12 0.00 87 1011.7
20260904020033 64 298 0.0 0.0 0.00 0.12 0.00 86 1011.6
20260904015532 65 296 0.0 0.0 0.00 0.16 0.00 86 1011.6
20260904015032 65 296 0.0 0.0 0.00 0.16 0.00 86 1011.6
20260904014536 65 296 0.0 0.0 0.00 0.16 0.00 85 1011.6
20260904014034 65 296 0.0 0.0 0.00 0.16 0.00 85 1011.7
20260904013532 65 296 0.0 0.0 0.00 0.16 0.00 85 1011.6
20260904013036 65 296 0.0 0.0 0.00 0.16 0.00 85 1011.7
20260904012534 65 296 0.0 0.0 0.00 0.16 0.00 85 1011.7
20260904012032 65 296 0.0 0.0 0.00 0.16 0.00 85 1011.7
20260904011536 65 296 0.0 0.0 0.00 0.16 0.00 85 1011.5
20260904011033 65 296 0.0 0.0 0.00 0.16 0.00 86 1011.4
20260904010532 65 296 0.0 0.0 0.00 0.16 0.00 85 1011.5
20260904010039 65 296 0.0 0.0 0.00 0.16 0.00 85 1011.5
20260904005530 65 296 0.0 0.0 0.00 0.16 0.00 85 1011.4
20260904005030 65 296 0.0 0.0 0.00 0.16 0.00 84 1011.5
20260904004530 66 296 0.0 0.0 0.00 0.16 0.00 84 1011.4
20260904004030 66 296 0.0 0.0 0.00 0.16 0.00 83 1011.3
20260904003530 66 296 0.0 0.0 0.00 0.16 0.00 83 1011.3
20260904003033 66 296 0.0 0.0 0.00 0.16 0.00 81 1011.2
20260904002529 66 296 0.0 0.0 0.00 0.16 0.00 82 1011.1
20260904002030 66 296 0.0 0.0 0.00 0.16 0.00 83 1011.2
20260904001533 66 296 0.0 0.0 0.00 0.16 0.00 82 1011.1
20260904001028 66 296 0.0 0.0 0.00 0.16 0.00 80 1011.2
20260904000529 66 296 0.0 0.0 0.00 0.16 0.00 80 1011.1
20260904000029 66 296 0.0 0.0 0.00 0.16 0.00 80 1011.3
20260903235528 67 296 0.0 0.0 0.00 0.16 0.00 78 1011.2
20260903235028 67 296 0.0 0.0 0.00 0.16 0.00 78 1011.1
20260903234528 67 296 0.0 0.0 0.00 0.16 0.00 79 1011.1
20260903234028 67 296 0.0 0.0 0.00 0.16 0.00 79 1011.1
20260903233528 67 296 0.0 0.0 0.00 0.16 0.00 79 1011.1
20260903233029 68 296 0.0 0.0 0.00 0.16 0.00 79 1010.9
20260903232527 68 296 0.0 0.0 0.00 0.16 0.00 77 1010.9
20260903232028 68 297 0.0 0.0 0.00 0.16 0.00 76 1011.2
20260903231533 69 297 0.0 0.0 0.00 0.16 0.00 77 1011.1
20260903231026 69 297 0.0 0.0 0.00 0.16 0.00 77 1010.9
20260903230528 70 297 0.0 0.0 0.00 0.16 0.00 77 1011.0
20260903230032 70 297 0.0 0.0 0.00 0.16 0.00 76 1011.0
20260903225528 70 297 0.0 0.0 0.00 0.16 0.00 77 1010.9
20260903225027 71 297 0.0 0.0 0.00 0.16 0.00 74 1010.8
20260903224547 71 297 0.0 0.0 0.00 0.16 0.00 75 1011.0
20260903224026 72 297 0.0 0.0 0.00 0.16 0.00 76 1011.0
20260903223526 72 297 0.0 0.0 0.00 0.16 0.00 75 1011.1
20260903223027 72 297 0.0 0.0 0.00 0.16 0.00 71 1011.0
20260903222528 72 297 0.0 0.0 0.00 0.16 0.00 71 1011.0
20260903222026 73 297 0.0 0.0 0.00 0.16 0.00 70 1010.9
20260903221532 73 297 0.0 0.0 0.00 0.16 0.00 69 1010.9
20260903221024 73 297 0.0 0.0 0.00 0.16 0.00 66 1010.9
20260903220528 73 297 0.0 0.0 0.00 0.16 0.00 67 1010.9
20260903220025 74 297 0.0 0.9 0.00 0.16 0.00 63 1010.9
20260903215524 74 298 0.0 5.2 0.00 0.16 0.00 59 1010.9
20260903215025 74 298 0.9 5.2 0.00 0.16 0.00 58 1010.9
20260903214536 74 303 1.7 6.1 0.00 0.16 0.00 58 1010.9
20260903214024 74 309 2.6 8.7 0.00 0.16 0.00 57 1010.9
20260903213525 75 290 3.5 8.7 0.00 0.16 0.00 56 1010.9
20260903213028 75 299 2.6 8.7 0.00 0.16 0.00 55 1010.9
20260903212526 75 325 4.3 8.7 0.00 0.16 0.00 54 1010.9
20260903212023 75 344 4.3 8.7 0.00 0.16 0.00 55 1011.0
20260903211521 75 304 4.3 7.8 0.00 0.16 0.00 55 1011.1
20260903211021 75 309 4.3 7.8 0.00 0.16 0.00 57 1011.2
20260903210522 75 310 2.6 7.8 0.00 0.16 0.00 59 1011.1
20260903210022 75 288 2.6 8.7 0.00 0.16 0.00 58 1011.1
20260903205521 75 300 2.6 8.7 0.00 0.16 0.00 56 1011.1
20260903205021 75 309 3.5 11.3 0.00 0.16 0.00 56 1011.1
20260903204522 76 281 3.5 14.8 0.00 0.16 0.00 55 1011.2
20260903204021 76 292 7.8 15.6 0.00 0.16 0.00 54 1011.2
20260903203520 77 269 6.1 10.4 0.00 0.16 0.00 56 1011.2
20260903203019 76 307 2.6 7.8 0.00 0.16 0.00 57 1011.3
20260903202519 76 277 3.5 10.4 0.00 0.16 0.00 57 1011.2
20260903202019 76 311 2.6 10.4 0.00 0.16 0.00 56 1011.2
20260903201518 76 296 4.3 8.7 0.00 0.16 0.00 56 1011.1
20260903201020 76 315 3.5 7.8 0.00 0.16 0.00 58 1011.0
20260903200517 76 284 4.3 9.6 0.00 0.16 0.00 57 1011.2
20260903200018 76 308 3.5 12.2 0.00 0.16 0.00 56 1011.2